Miscellaneous Local Product
Issued by NWS Hastings, NE

Home | Current Version | Previous Version | Graphics & Text | Print | Product List | Glossary On
Versions: 1 2 3 4 5 6 7 8 9 10 11 12 13 14 15 16 17 18 19 20 21 22 23 24 25 26 27 28 29 30 31 32 33 34 35 36 37 38 39 40 41 42 43 44 45 46 47 48 49 50
832
AXUS43 KGID 022302
MISGRI

GID CWA HOURLY WEATHER ROUNDUP
NATIONAL WEATHER SERVICE HASTINGS NE
500 PM CST FRI DEC 02 2016

NOTE: "FAIR" INDICATES FEW OR NO CLOUDS BELOW 12,000 FEET WITH NO
SIGNIFICANT WEATHER AND/OR OBSTRUCTIONS TO VISIBILITY.

...SOUTH CENTRAL NEBRASKA...

CITY           SKY/WX    TMP DP  RH WIND       PRES   REMARKS
GRAND ISLAND   CLEAR     36  25  64 CALM      30.29R
HASTINGS       PTCLDY    36  26  67 CALM      30.29R
KEARNEY        CLEAR     37  23  56 CALM      30.27F
ORD            CLEAR     39  22  50 E3        30.25S
YORK           CLEAR     36  25  64 CALM      30.29S HAZE
AURORA         CLEAR     36  24  62 CALM      30.29R
LEXINGTON      CLEAR     37  26  63 S3        30.26F
HOLDREGE       CLEAR     38  23  56 CALM      30.26F
HEBRON         PTCLDY    41  26  55 CALM      30.29S

...NEBRASKA PANHANDLE...

CITY           SKY/WX    TMP DP  RH WIND       PRES   REMARKS
CHADRON        CLOUDY    40  19  43 W3        30.18S
ALLIANCE       MOCLDY    38  18  44 CALM      30.17S
SCOTTSBLUFF    CLEAR     36  19  50 S5        30.19R WCI  32
SIDNEY         PTCLDY    35  22  58 S5        30.20S WCI  31

...WESTERN AND NORTH CENTRAL NEBRASKA...

CITY           SKY/WX    TMP DP  RH WIND       PRES   REMARKS
VALENTINE      CLEAR     36  25  64 NW6       30.22S WCI  31
AINSWORTH      CLEAR     34  25  69 NE6       30.22S WCI  29
ONEILL         CLEAR     35  27  73 CALM      30.26S
BROKEN BOW     CLEAR     38  25  59 S6        30.24R WCI  33
IMPERIAL       MOCLDY    39  23  52 CALM      30.22F
NORTH PLATTE   CLEAR     40  20  44 CALM      30.23F
MCCOOK         CLEAR     39  22  50 E3        30.25S

...EASTERN NEBRASKA...

CITY           SKY/WX    TMP DP  RH WIND       PRES   REMARKS
NORFOLK        CLOUDY    34  25  69 CALM      30.29S
SO SIOUX CITY  CLOUDY    37  31  78 NW12      30.30S WCI  29
TEKAMAH        CLOUDY    38  29  70 W7        30.30S WCI  33
COLUMBUS       CLEAR     34  25  69 N6        30.30R WCI  29
ALBION         CLEAR     34  26  71 NE6       30.28R WCI  29
OMAHA EPPLEY   MOCLDY    36  28  73 N3        30.31R
OFFUTT AFB     PTCLDY    37  30  76 N5        30.30R WCI  34
MILLARD        CLEAR     39  29  68 CALM      30.31R
LINCOLN        CLEAR     39  27  62 N6        30.31R WCI  35
NEBRASKA CITY  PTCLDY    39  26  59 N5        30.30R
BEATRICE       CLEAR     37  26  66 NW5       30.30R WCI  33
FALLS CITY       N/A    N/A N/A N/A MISG      30.30R

...NORTHERN KANSAS...

CITY           SKY/WX    TMP DP  RH WIND       PRES   REMARKS
GOODLAND       CLOUDY    39  14  36 NE5       30.20F
HILL CITY      CLOUDY    42  21  43 E3        30.25S
NORTON         CLEAR     36  18  48 N5        30.24S WCI  32
PHILLIPSBURG   CLEAR     39  25  56 NE3       30.26F
SMITH CENTER   CLEAR     36  25  64 N7        30.27F WCI  30
BELOIT         CLEAR     37  25  60 CALM      30.27S
HAYS           CLEAR     42  21  43 NE7       30.25S
RUSSELL        CLEAR     41  20  43 NE9       30.24S
CONCORDIA      CLEAR     42  25  50 NE3       30.27F
SALINA         CLEAR     47  24  40 CALM      30.27R
TOPEKA         CLEAR     44  26  49 NE6       30.28S



USA.gov is the U.S. government's official web portal to all federal, state and local government web resources and services.